Petaluma, CA

9:14 PM PST on December 09, 2019 (GMT -0800)
Petaluma

Weather History for KO69 - November, 2019

Change the Weather History Date:

Thursday, November 14, 2019

  Actual Average (WUND) Record (WUND)
Temperature  
Mean Temperature 55 °F -  
Max Temperature 59 °F - - (-1)
Min Temperature 51 °F - - (-1)
Degree Days  
Heating Degree Days 10    
Growing Degree Days 5 (Base 50)    
Moisture  
Dew Point 54 °F    
Average Humidity 93    
Maximum Humidity 100    
Minimum Humidity 82    
Precipitation  
Precipitation 0.00 in - - ()
Sea Level Pressure  
Sea Level Pressure 30.09 in    
Wind  
Wind Speed 2 mph ()    
Max Wind Speed 7 mph    
Max Gust Speed -    
Visibility 8.8 miles    
Events      
Averages and records for this station are not official NWS values.
T = Trace of Precipitation, MM = Missing Value Source: Averaged Metar Reports

Daily Weather History Graph

Daily Weather History Graph

Search for Another Location

Airport or City:

Astronomy

Nov. 14, 2019 Rise Set
Actual Time 6:50 AM PST 4:58 PM PST
Civil Twilight 6:22 AM PST 5:26 PM PST
Nautical Twilight 5:50 AM PST 5:58 PM PST
Astronomical Twilight 5:19 AM PST 6:30 PM PST
Moon 6:50 PM PST (11/14) 8:50 AM PST (11/14)
Length of Visible Light 11h 04m
Length of Day
10h 08m
Waning Gibbous, 95% of the Moon is Illuminated
Nov 14
Waning Gibbous
Nov 19
Last Quarter
Nov 26
New
Dec 3
First Quarter
Dec 11
Full

Hourly Weather History & Observations

Time (PST) Temp. Dew Point Humidity Pressure Visibility Wind Dir Wind Speed Gust Speed Precip Events Conditions
12:15 AM 53.6 °F 53.6 °F 100% 30.03 in 8.0 mi NNW 4.6 mph - N/A   Overcast
12:35 AM 53.6 °F 53.6 °F 100% 30.03 in 9.0 mi North 4.6 mph - N/A   Overcast
12:55 AM 53.6 °F 53.6 °F 100% 30.03 in 8.0 mi NNW 3.5 mph - N/A   Overcast
1:15 AM 53.6 °F 53.6 °F 100% 30.04 in 9.0 mi Calm Calm - N/A   Overcast
1:35 AM 55.4 °F 53.6 °F 94% 30.04 in 9.0 mi NNW 4.6 mph - N/A   Overcast
1:55 AM 55.4 °F 53.6 °F 94% 30.05 in 9.0 mi NNW 4.6 mph - N/A   Overcast
2:15 AM 55.4 °F 53.6 °F 94% 30.04 in 10.0 mi North 5.8 mph - N/A   Overcast
2:35 AM 53.6 °F 51.8 °F 94% 30.04 in 10.0 mi WNW 3.5 mph - N/A   Mostly Cloudy
3:15 AM 53.6 °F 51.8 °F 94% 30.04 in 10.0 mi North 4.6 mph - N/A   Overcast
3:35 AM 53.6 °F 51.8 °F 94% 30.03 in 10.0 mi Calm Calm - N/A   Overcast
3:55 AM 53.6 °F 51.8 °F 94% 30.04 in 10.0 mi Calm Calm - N/A   Overcast
4:15 AM 51.8 °F 51.8 °F 100% 30.04 in 9.0 mi Calm Calm - N/A   Overcast
4:35 AM 51.8 °F 51.8 °F 100% 30.04 in 6.0 mi Calm Calm - N/A   Overcast
4:55 AM 51.8 °F 51.8 °F 100% 30.05 in 7.0 mi Calm Calm - N/A   Overcast
5:35 AM 51.8 °F 51.8 °F 100% 30.05 in 7.0 mi Calm Calm - N/A   Overcast
5:55 AM 53.6 °F 53.6 °F 100% 30.05 in 7.0 mi Calm Calm - N/A   Overcast
6:15 AM 53.6 °F 53.6 °F 100% 30.05 in 7.0 mi Calm Calm - N/A   Overcast
6:35 AM 53.6 °F 53.6 °F 100% 30.05 in 8.0 mi Calm Calm - N/A   Overcast
6:55 AM 53.6 °F 53.6 °F 100% 30.06 in 7.0 mi Calm Calm - N/A   Overcast
7:15 AM 53.6 °F 53.6 °F 100% 30.07 in 5.0 mi Calm Calm - N/A   Overcast
7:35 AM 53.6 °F 53.6 °F 100% 30.07 in 6.0 mi Calm Calm - N/A   Overcast
7:55 AM 53.6 °F 53.6 °F 100% 30.07 in 6.0 mi Calm Calm - N/A   Overcast
8:15 AM 53.6 °F 53.6 °F 100% 30.08 in 7.0 mi Calm Calm - N/A   Overcast
8:55 AM 55.4 °F 53.6 °F 94% 30.08 in 7.0 mi Calm Calm - N/A   Overcast
9:15 AM 55.4 °F 53.6 °F 94% 30.09 in 8.0 mi Calm Calm - N/A   Overcast
9:35 AM 57.2 °F 53.6 °F 88% 30.09 in 8.0 mi Calm Calm - N/A   Overcast
9:55 AM 59.0 °F 53.6 °F 82% 30.09 in 10.0 mi Variable 5.8 mph - N/A   Overcast
10:15 AM 59.0 °F 53.6 °F 82% 30.09 in 10.0 mi South 5.8 mph - N/A   Overcast
10:35 AM 59.0 °F 53.6 °F 82% 30.09 in 10.0 mi South 5.8 mph - N/A   Overcast
10:55 AM 59.0 °F 53.6 °F 82% 30.10 in 10.0 mi SSE 5.8 mph - N/A   Overcast
11:15 AM 59.0 °F 53.6 °F 82% 30.10 in 9.0 mi SSE 5.8 mph - N/A   Overcast
11:35 AM 59.0 °F 53.6 °F 82% 30.10 in 9.0 mi SSE 4.6 mph - N/A   Overcast
11:55 AM 59.0 °F 53.6 °F 82% 30.10 in 8.0 mi South 5.8 mph - N/A   Overcast
12:15 PM 57.2 °F 55.4 °F 94% 30.10 in 3.0 mi SW 4.6 mph - N/A   Overcast
12:35 PM 57.2 °F 57.2 °F 100% 30.10 in 6.0 mi WNW 4.6 mph - N/A   Overcast
12:55 PM 57.2 °F 57.2 °F 100% 30.10 in 2.5 mi Calm Calm - N/A   Overcast
1:15 PM 57.2 °F 57.2 °F 100% 30.10 in 5.0 mi Calm Calm - N/A   Overcast
1:35 PM 57.2 °F 57.2 °F 100% 30.10 in 9.0 mi Calm Calm - N/A   Overcast
1:55 PM 59.0 °F 57.2 °F 94% 30.10 in 9.0 mi Calm Calm - N/A   Overcast
2:15 PM 59.0 °F 57.2 °F 94% 30.09 in 10.0 mi Calm Calm - N/A   Overcast
2:35 PM 59.0 °F 55.4 °F 88% 30.09 in 10.0 mi Calm Calm - N/A   Overcast
2:55 PM 59.0 °F 53.6 °F 82% 30.09 in 10.0 mi WNW 6.9 mph - N/A   Overcast
3:15 PM 59.0 °F 53.6 °F 82% 30.10 in 10.0 mi West 6.9 mph - N/A   Overcast
3:35 PM 59.0 °F 53.6 °F 82% 30.09 in 10.0 mi Variable 4.6 mph - N/A   Overcast
3:55 PM 59.0 °F 53.6 °F 82% 30.09 in 10.0 mi West 5.8 mph - N/A   Overcast
4:15 PM 59.0 °F 53.6 °F 82% 30.09 in 10.0 mi Variable 4.6 mph - N/A   Overcast
4:35 PM 57.2 °F 51.8 °F 82% 30.09 in 10.0 mi West 4.6 mph - N/A   Overcast
4:55 PM 57.2 °F 53.6 °F 88% 30.10 in 10.0 mi WNW 5.8 mph - N/A   Overcast
5:15 PM 57.2 °F 53.6 °F 88% 30.10 in 10.0 mi Calm Calm - N/A   Overcast
5:35 PM 57.2 °F 53.6 °F 88% 30.11 in 10.0 mi Calm Calm - N/A   Overcast
5:55 PM 57.2 °F 53.6 °F 88% 30.12 in 10.0 mi Calm Calm - N/A   Overcast
6:35 PM 55.4 °F 53.6 °F 94% 30.13 in 10.0 mi West 3.5 mph - N/A   Overcast
6:55 PM 57.2 °F 53.6 °F 88% 30.13 in 10.0 mi WNW 4.6 mph - N/A   Overcast
7:15 PM 55.4 °F 53.6 °F 94% 30.13 in 10.0 mi Calm Calm - N/A   Overcast
7:35 PM 55.4 °F 53.6 °F 94% 30.14 in 10.0 mi Calm Calm - N/A   Overcast
7:55 PM 55.4 °F 53.6 °F 94% 30.14 in 10.0 mi Calm Calm - N/A   Overcast
8:15 PM 55.4 °F 53.6 °F 94% 30.14 in 10.0 mi Calm Calm - N/A   Overcast
8:35 PM 55.4 °F 53.6 °F 94% 30.14 in 10.0 mi Calm Calm - N/A   Overcast
8:55 PM 55.4 °F 53.6 °F 94% 30.14 in 10.0 mi Calm Calm - N/A   Overcast
9:35 PM 55.4 °F 55.4 °F 100% 30.15 in 10.0 mi Calm Calm - N/A   Overcast
9:55 PM 55.4 °F 53.6 °F 94% 30.15 in 10.0 mi Calm Calm - N/A   Overcast
10:15 PM 55.4 °F 53.6 °F 94% 30.15 in 10.0 mi Calm Calm - N/A   Overcast
10:35 PM 55.4 °F 53.6 °F 94% 30.15 in 10.0 mi Calm Calm - N/A   Overcast
10:55 PM 55.4 °F 53.6 °F 94% 30.16 in 10.0 mi WNW 5.8 mph - N/A   Overcast
11:15 PM 55.4 °F 53.6 °F 94% 30.16 in 10.0 mi Calm Calm - N/A   Overcast
11:35 PM 55.4 °F 53.6 °F 94% 30.17 in 10.0 mi Calm Calm - N/A   Overcast
11:55 PM 55.4 °F 53.6 °F 94% 30.17 in 10.0 mi Calm Calm - N/A   Overcast